Weather History for KLHQ - February, 2014

Change the Weather History Date:

Wednesday, February 5, 2014

  Actual Average Record
Temperature  
Mean Temperature 28 °F -  
Max Temperature 33 °F 35 °F 66 °F (1962)
Min Temperature 23 °F 15 °F -13 °F (1985)
Degree Days  
Heating Degree Days 36    
Moisture  
Dew Point 26 °F    
Average Humidity 87    
Maximum Humidity 96    
Minimum Humidity 75    
Precipitation  
Precipitation 0.36 in - - ()
Sea Level Pressure  
Sea Level Pressure 29.88 in    
Wind  
Wind Speed 9 mph (NW)    
Max Wind Speed 16 mph    
Max Gust Speed 24 mph    
Visibility 4 miles    
Events Rain , Snow    
Averages and records for this station are not official NWS values.
T = Trace of Precipitation, MM = Missing Value Source: NWS Daily Summary

Daily Weather History Graph

Daily Weather History Graph

Search for Another Location

Airport or City:

Trip Planner

Search our weather history database for the weather conditions in past years. The results will help you decide how hot, cold, wet, or windy it might be!

Date:

Astronomy

Feb. 05, 2014 Rise Set
Actual Time 7:34 AM EST 5:55 PM EST
Civil Twilight 7:06 AM EST 6:23 PM EST
Nautical Twilight 6:34 AM EST 6:55 PM EST
Astronomical Twilight 6:02 AM EST 7:27 PM EST
Moon 10:49 AM EST (2/5) No Moon Set
Length of Visible Light 11h 16m
Length of Day
10h 20m
Waxing Crescent, 39% of the Moon is Illuminated
Feb 5
Waxing Crescent
Feb 6
First Quarter
Feb 14
Full
Feb 22
Last Quarter
Mar 1
New

Hourly Weather History & Observations

Time (EST) Temp. Windchill Dew Point Humidity Pressure Visibility Wind Dir Wind Speed Gust Speed Precip Events Conditions
12:03 AM 28.0 °F 19.3 °F 25.0 °F 88% 29.94 in 2.0 mi ENE 9.2 mph - 0.02 in Rain Light Freezing Rain
12:11 AM 28.9 °F 19.8 °F 26.1 °F 89% 29.94 in 2.5 mi East 10.4 mph - 0.04 in Rain Light Freezing Rain
12:24 AM 30.0 °F 21.7 °F 27.0 °F 88% 29.94 in 3.0 mi East 9.2 mph - 0.07 in Rain Light Freezing Rain
12:53 AM 30.0 °F 19.5 °F 27.0 °F 88% 29.93 in 3.0 mi ENE 13.8 mph 21.9 mph 0.15 in Rain Light Freezing Rain
1:00 AM 30.9 °F 20.7 °F 27.0 °F 85% 29.89 in 4.0 mi East 13.8 mph 21.9 mph 0.02 in Rain Light Freezing Rain
1:20 AM 30.9 °F 19.8 °F 27.0 °F 85% 29.86 in 5.0 mi East 16.1 mph - 0.05 in Rain Light Freezing Rain
1:29 AM 30.9 °F 20.7 °F 27.0 °F 85% 29.86 in 5.0 mi East 13.8 mph 24.2 mph 0.05 in Rain Light Freezing Rain
1:48 AM 30.2 °F 19.8 °F 28.4 °F 93% 29.84 in 5.0 mi East 13.8 mph 19.6 mph 0.06 in Rain Light Freezing Rain
1:53 AM 30.9 °F 20.2 °F 28.0 °F 89% 29.86 in 5.0 mi East 15.0 mph - 0.07 in Rain Light Freezing Rain
2:01 AM 30.9 °F 21.2 °F 28.9 °F 92% 29.83 in 5.0 mi ESE 12.7 mph - 0.00 in   Overcast
2:08 AM 30.9 °F 21.7 °F 28.0 °F 89% 29.83 in 6.0 mi East 11.5 mph - 0.00 in Rain Light Freezing Rain
2:40 AM 30.9 °F 20.7 °F 28.9 °F 92% 29.80 in 4.0 mi ESE 13.8 mph - 0.03 in Rain Light Freezing Rain
2:45 AM 30.9 °F 22.2 °F 28.9 °F 92% 29.79 in 4.0 mi ESE 10.4 mph - 0.03 in Rain Light Freezing Rain
2:53 AM 30.9 °F 22.8 °F 28.9 °F 92% 29.81 in 5.0 mi ESE 9.2 mph - 0.04 in Rain Light Freezing Rain
3:43 AM 32.0 °F 24.8 °F 28.9 °F 88% 29.76 in 9.0 mi NE 8.1 mph - 0.01 in   Overcast
3:53 AM 32.0 °F 25.6 °F 28.9 °F 88% 29.77 in 9.0 mi NE 6.9 mph - 0.01 in   Overcast
4:03 AM 32.0 °F 24.8 °F 28.9 °F 88% 29.73 in 9.0 mi ENE 8.1 mph - N/A   Overcast
4:53 AM 32.0 °F 24.8 °F 28.9 °F 88% 29.72 in 9.0 mi East 8.1 mph - N/A   Overcast
5:10 AM 32.0 °F 25.6 °F 30.0 °F 92% 29.67 in 9.0 mi East 6.9 mph - N/A   Overcast
5:53 AM 32.0 °F 26.4 °F 30.0 °F 92% 29.68 in 7.0 mi ESE 5.8 mph - N/A   Overcast
6:01 AM 32.0 °F 27.5 °F 30.0 °F 92% 29.65 in 5.0 mi SE 4.6 mph - 0.00 in Rain Light Freezing Rain
6:10 AM 32.0 °F 27.5 °F 30.0 °F 92% 29.65 in 2.5 mi ESE 4.6 mph - 0.02 in Rain Light Freezing Rain
6:17 AM 32.0 °F - 30.9 °F 96% 29.65 in 2.0 mi Calm Calm - 0.04 in Rain Light Freezing Rain
6:28 AM 33.1 °F 27.7 °F 30.9 °F 92% 29.69 in 2.0 mi West 5.8 mph - 0.07 in   Overcast
6:39 AM 33.1 °F - 30.9 °F 92% 29.68 in 2.5 mi Calm Calm - 0.09 in Rain Light Rain
6:50 AM 33.8 °F - 30.2 °F 87% 29.67 in 4.0 mi Calm Calm - 0.09 in   Overcast
6:51 AM 33.8 °F - 30.2 °F 87% 29.68 in 4.0 mi Calm Calm - 0.09 in   Overcast
6:53 AM 33.1 °F - 30.9 °F 92% 29.70 in 4.0 mi Calm Calm - 0.09 in   Overcast
7:06 AM 33.1 °F 30.0 °F 30.9 °F 92% 29.67 in 4.0 mi NW 3.5 mph - 0.00 in Rain Light Rain
7:13 AM 33.1 °F - 30.9 °F 92% 29.68 in 3.0 mi Calm Calm - 0.00 in Rain Light Rain
7:24 AM 33.1 °F 27.7 °F 30.9 °F 92% 29.68 in 4.0 mi NNW 5.8 mph - 0.00 in   Overcast
7:34 AM 32.0 °F 26.4 °F 30.0 °F 92% 29.69 in 4.0 mi NW 5.8 mph - 0.00 in   Overcast
7:53 AM 32.0 °F 27.5 °F 30.0 °F 92% 29.73 in 4.0 mi NW 4.6 mph - 0.00 in   Overcast
8:02 AM 32.0 °F 27.5 °F 30.0 °F 92% 29.70 in 2.0 mi WNW 4.6 mph - N/A   Overcast
8:10 AM 32.0 °F 26.4 °F 30.0 °F 92% 29.71 in 1.2 mi West 5.8 mph - N/A   Overcast
8:45 AM 32.0 °F 26.4 °F 30.0 °F 92% 29.73 in 2.0 mi WNW 5.8 mph - N/A   Overcast
8:53 AM 30.9 °F 25.2 °F 28.9 °F 92% 29.76 in 2.5 mi Variable 5.8 mph - N/A   Overcast
9:08 AM 30.9 °F 22.8 °F 28.9 °F 92% 29.74 in 3.0 mi West 9.2 mph - N/A   Overcast
9:34 AM 30.9 °F 22.8 °F 28.9 °F 92% 29.76 in 2.5 mi WNW 9.2 mph - N/A   Overcast
9:48 AM 30.2 °F 21.9 °F 28.4 °F 93% 29.77 in 4.0 mi West 9.2 mph - N/A   Overcast
9:53 AM 30.9 °F 22.8 °F 28.0 °F 89% 29.80 in 5.0 mi West 9.2 mph - N/A   Overcast
10:16 AM 30.9 °F 22.2 °F 28.0 °F 89% 29.79 in 4.0 mi West 10.4 mph - N/A   Overcast
10:38 AM 30.0 °F 21.7 °F 27.0 °F 88% 29.82 in 5.0 mi WNW 9.2 mph 18.4 mph N/A   Overcast
10:49 AM 28.4 °F 18.0 °F 26.6 °F 93% 29.83 in 2.5 mi West 12.7 mph - 0.00 in Snow Light Snow
10:53 AM 28.9 °F 19.8 °F 26.1 °F 89% 29.86 in 2.0 mi West 10.4 mph - 0.00 in Snow Light Snow
10:59 AM 28.9 °F 18.6 °F 26.1 °F 89% 29.84 in 1.5 mi West 12.7 mph - 0.00 in Snow Light Snow
11:11 AM 28.0 °F 17.0 °F 24.1 °F 85% 29.85 in 2.0 mi West 13.8 mph - 0.00 in Snow Light Snow
11:14 AM 28.0 °F 18.1 °F 24.1 °F 85% 29.85 in 3.0 mi West 11.5 mph - 0.00 in Snow Light Snow
11:27 AM 28.0 °F 17.5 °F 24.1 °F 85% 29.86 in 4.0 mi West 12.7 mph - 0.00 in   Overcast
11:34 AM 28.0 °F 17.5 °F 24.1 °F 85% 29.87 in 3.0 mi West 12.7 mph - 0.00 in   Overcast
11:50 AM 28.4 °F 19.1 °F 23.0 °F 80% 29.88 in 4.0 mi WNW 10.4 mph 20.7 mph 0.00 in   Haze
11:53 AM 28.0 °F 19.3 °F 23.0 °F 81% 29.91 in 4.0 mi West 9.2 mph 17.3 mph 0.00 in   Haze
12:18 PM 27.0 °F 18.7 °F 23.0 °F 85% 29.89 in 2.5 mi WNW 8.1 mph 19.6 mph 0.00 in Snow Light Snow
12:38 PM 27.0 °F 17.3 °F 23.0 °F 85% 29.90 in 3.0 mi WNW 10.4 mph 19.6 mph 0.00 in   Overcast
12:46 PM 27.0 °F 15.6 °F 21.9 °F 81% 29.91 in 2.5 mi WNW 13.8 mph 19.6 mph 0.00 in Snow Light Snow
12:53 PM 27.0 °F 18.0 °F 21.9 °F 81% 29.94 in 2.5 mi West 9.2 mph - 0.00 in Snow Light Snow
1:04 PM 26.1 °F 15.6 °F 21.9 °F 84% 29.92 in 3.0 mi West 11.5 mph 18.4 mph 0.00 in   Overcast
1:53 PM 26.1 °F 15.6 °F 21.0 °F 81% 29.98 in 3.0 mi WNW 11.5 mph - 0.00 in   Haze
2:03 PM 26.1 °F 14.5 °F 21.0 °F 81% 29.96 in 2.5 mi NW 13.8 mph - 0.00 in Snow Light Snow
2:08 PM 26.1 °F 15.0 °F 21.0 °F 81% 29.97 in 1.8 mi WNW 12.7 mph - 0.00 in Snow Light Snow
2:42 PM 26.1 °F 15.0 °F 21.0 °F 81% 29.99 in 2.5 mi NW 12.7 mph - 0.00 in Snow Light Snow
2:51 PM 26.6 °F 16.2 °F 21.2 °F 80% 30.00 in 4.0 mi NW 11.5 mph - 0.00 in   Haze
2:53 PM 26.1 °F 16.2 °F 21.0 °F 81% 30.03 in 5.0 mi NW 10.4 mph - 0.00 in   Haze
3:53 PM 26.1 °F 15.0 °F 19.9 °F 78% 30.08 in 7.0 mi NW 12.7 mph 20.7 mph N/A   Overcast
4:53 PM 25.0 °F 15.5 °F 19.0 °F 78% 30.14 in 6.0 mi NNW 9.2 mph - N/A   Haze
5:53 PM 25.0 °F 14.8 °F 18.0 °F 75% 30.18 in 7.0 mi NNW 10.4 mph - 0.00 in   Overcast
6:53 PM 25.0 °F 16.3 °F 19.9 °F 81% 30.23 in 9.0 mi NW 8.1 mph - N/A   Overcast
7:53 PM 24.1 °F 15.2 °F 18.0 °F 77% 30.27 in 10.0 mi NNW 8.1 mph - N/A   Overcast
8:40 PM 24.1 °F 16.0 °F 18.0 °F 77% 30.27 in 10.0 mi NNW 6.9 mph - N/A   Overcast
8:53 PM 24.1 °F 17.0 °F 18.0 °F 77% 30.30 in 10.0 mi NNW 5.8 mph - N/A   Overcast
9:53 PM 24.1 °F 18.2 °F 19.0 °F 81% 30.32 in 5.0 mi WNW 4.6 mph - 0.00 in Snow Light Snow
10:29 PM 24.1 °F 15.2 °F 19.0 °F 81% 30.30 in 4.0 mi NNW 8.1 mph - 0.00 in Snow Light Snow
10:53 PM 24.1 °F 16.0 °F 19.0 °F 81% 30.34 in 4.0 mi NNW 6.9 mph - 0.00 in Snow Light Snow
11:53 PM 23.0 °F 15.8 °F 18.0 °F 81% 30.35 in 7.0 mi NNW 5.8 mph - 0.00 in Snow Light Snow